Knoxville Regional Airport (TYS)

 

Airport Diagram
Current Weather/Forecast (MVFR Conditions)
METAR KTYS 260623Z 35009KT 10SM OVC016 09/06 A3006 RMK AO2 T00890056
TAF KTYS 260524Z 2606/2706 01010KT P6SM OVC015 FM261600 02012KT P6SM BKN050 FM270200 02005KT P6SM FEW050

All Charts
General
Chart Name Download
AIRPORT DIAGRAM
TAKEOFF MINIMUMS
ALTERNATE MINIMUMS
RADAR MINIMUMS
HOT SPOT

Departures
Chart Name Download
KNOXVILLE SIX

Approaches
Chart Name Download
HI-ILS OR LOC RWY 05L
HI-ILS OR LOC RWY 23L
HI-ILS OR LOC RWY 23R
ILS OR LOC RWY 05L
ILS OR LOC RWY 23L
ILS OR LOC RWY 23R
ILS RWY 23R (SA CAT I)
ILS RWY 23R (CAT II)
RNAV (GPS) RWY 05L
RNAV (GPS) RWY 05R
RNAV (GPS) RWY 23L
RNAV (GPS) RWY 23R
HI-VOR/DME OR TACAN RWY 05L
HI-VOR/DME OR TACAN RWY 23R
VOR RWY 23L
VOR RWY 23R


Inbound Traffic (Arrivals)

No inbound traffic.


Outbound Traffic (Departures)

No outbound traffic.